• In Deutschland
  • Länderverzeichnis
  • Für 7 Tage
  • Wassertemperatur
  • Satellitenkarten
  • Wetterkarte
  • Widgets
  • user-avatar
    Anmelden

    Stündliche Wetter Masari Sharif

    Heute, 23 Juni, Freitag

    Zeit Temperatur Niederschläge Wind Luftdruck Luftfeuchtigkeit
    00:00 +28°C° 0 mm 2 m/S 652 mmHg 17%
    01:00 +27°C° 0 mm 2 m/S 652 mmHg 17%
    02:00 +27°C° 0 mm 2 m/S 652 mmHg 18%
    03:00 +26°C° 0 mm 2 m/S 652 mmHg 18%
    04:00 +26°C° 0 mm 2 m/S 651 mmHg 19%
    05:00 +28°C° 0 mm 1 m/S 652 mmHg 17%
    06:00 +30°C° 0 mm 1 m/S 653 mmHg 15%
    07:00 +32°C° 0 mm 1 m/S 654 mmHg 13%
    08:00 +35°C° 0 mm 2 m/S 654 mmHg 13%
    09:00 +36°C° 0 mm 3 m/S 654 mmHg 12%
    10:00 +37°C° 0 mm 4 m/S 655 mmHg 12%
    11:00 +39°C° 0 mm 5 m/S 655 mmHg 12%
    12:00 +39°C° 0 mm 5 m/S 655 mmHg 12%
    13:00 +40°C° 0 mm 5 m/S 655 mmHg 12%
    14:00 +40°C° 0 mm 6 m/S 654 mmHg 12%
    15:00 +39°C° 0 mm 6 m/S 654 mmHg 13%
    16:00 +39°C° 0 mm 6 m/S 654 mmHg 13%
    17:00 +36°C° 0 mm 6 m/S 654 mmHg 16%
    18:00 +35°C° 0 mm 6 m/S 653 mmHg 19%
    19:00 +33°C° 0 mm 5 m/S 653 mmHg 21%
    20:00 +32°C° 0 mm 5 m/S 653 mmHg 24%
    21:00 +30°C° 0 mm 5 m/S 653 mmHg 27%
    22:00 +28°C° 0 mm 4 m/S 653 mmHg 30%
    23:00 +28°C° 0 mm 4 m/S 653 mmHg 33%

    Morgen, 24 Juni, Samstag

    Zeit Temperatur Niederschläge Wind Luftdruck Luftfeuchtigkeit
    00:00 +27°C° 0 mm 4 m/S 653 mmHg 35%
    01:00 +26°C° 0 mm 4 m/S 653 mmHg 37%
    02:00 +26°C° 0 mm 4 m/S 653 mmHg 38%
    03:00 +25°C° 0 mm 4 m/S 653 mmHg 39%
    04:00 +25°C° 0 mm 4 m/S 653 mmHg 40%
    05:00 +26°C° 0 mm 5 m/S 653 mmHg 38%
    06:00 +26°C° 0 mm 5 m/S 654 mmHg 35%
    07:00 +27°C° 0 mm 5 m/S 655 mmHg 33%
    08:00 +28°C° 0 mm 6 m/S 655 mmHg 30%
    09:00 +30°C° 0 mm 6 m/S 655 mmHg 27%
    10:00 +32°C° 0 mm 7 m/S 655 mmHg 24%
    11:00 +33°C° 0 mm 7 m/S 655 mmHg 22%
    12:00 +33°C° 0 mm 7 m/S 655 mmHg 19%
    13:00 +34°C° 0 mm 7 m/S 655 mmHg 17%
    14:00 +34°C° 0 mm 7 m/S 655 mmHg 17%
    15:00 +34°C° 0 mm 7 m/S 655 mmHg 17%
    16:00 +34°C° 0 mm 7 m/S 654 mmHg 16%
    17:00 +32°C° 0 mm 7 m/S 654 mmHg 18%
    18:00 +30°C° 0 mm 6 m/S 654 mmHg 19%
    19:00 +29°C° 0 mm 5 m/S 654 mmHg 21%
    20:00 +28°C° 0 mm 5 m/S 654 mmHg 23%
    21:00 +27°C° 0 mm 4 m/S 654 mmHg 24%
    22:00 +26°C° 0 mm 4 m/S 654 mmHg 26%
    23:00 +25°C° 0 mm 4 m/S 654 mmHg 27%

    übermorgen, 25 Juni, Sonntag

    Zeit Temperatur Niederschläge Wind Luftdruck Luftfeuchtigkeit
    00:00 +24°C° 0 mm 3 m/S 654 mmHg 28%
    01:00 +24°C° 0 mm 3 m/S 653 mmHg 29%
    02:00 +22°C° 0 mm 3 m/S 653 mmHg 30%
    03:00 +22°C° 0 mm 3 m/S 653 mmHg 31%
    04:00 +21°C° 0 mm 3 m/S 653 mmHg 32%
    05:00 +22°C° 0 mm 3 m/S 654 mmHg 31%
    06:00 +25°C° 0 mm 3 m/S 654 mmHg 29%
    07:00 +26°C° 0 mm 3 m/S 655 mmHg 27%
    08:00 +27°C° 0 mm 3 m/S 655 mmHg 25%
    09:00 +28°C° 0 mm 3 m/S 655 mmHg 23%
    10:00 +29°C° 0 mm 3 m/S 655 mmHg 21%
    11:00 +30°C° 0 mm 3 m/S 655 mmHg 19%
    12:00 +32°C° 0 mm 4 m/S 654 mmHg 18%
    13:00 +33°C° 0 mm 4 m/S 654 mmHg 17%
    14:00 +33°C° 0 mm 4 m/S 654 mmHg 16%
    15:00 +33°C° 0 mm 4 m/S 654 mmHg 16%
    16:00 +33°C° 0 mm 4 m/S 653 mmHg 15%
    17:00 +31°C° 0 mm 3 m/S 653 mmHg 17%
    18:00 +30°C° 0 mm 3 m/S 653 mmHg 18%
    19:00 +28°C° 0 mm 2 m/S 653 mmHg 20%
    20:00 +27°C° 0 mm 2 m/S 653 mmHg 20%
    21:00 +27°C° 0 mm 2 m/S 653 mmHg 21%
    22:00 +26°C° 0 mm 2 m/S 653 mmHg 21%
    23:00 +26°C° 0 mm 2 m/S 653 mmHg 22%

    26 Juni, Montag

    Zeit Temperatur Niederschläge Wind Luftdruck Luftfeuchtigkeit
    00:00 +25°C° 0 mm 2 m/S 653 mmHg 22%
    01:00 +25°C° 0 mm 2 m/S 653 mmHg 22%
    02:00 +24°C° 0 mm 2 m/S 653 mmHg 23%
    03:00 +24°C° 0 mm 3 m/S 653 mmHg 23%
    04:00 +24°C° 0 mm 3 m/S 653 mmHg 24%
    05:00 +25°C° 0 mm 3 m/S 654 mmHg 24%
    06:00 +26°C° 0 mm 4 m/S 655 mmHg 24%
    07:00 +28°C° 0 mm 4 m/S 655 mmHg 25%
    08:00 +29°C° 0 mm 4 m/S 656 mmHg 23%
    09:00 +30°C° 0 mm 5 m/S 656 mmHg 22%
    10:00 +32°C° 0 mm 5 m/S 656 mmHg 20%
    11:00 +33°C° 0 mm 6 m/S 656 mmHg 19%
    12:00 +33°C° 0 mm 6 m/S 656 mmHg 17%
    13:00 +34°C° 0 mm 6 m/S 656 mmHg 15%
    14:00 +34°C° 0 mm 6 m/S 656 mmHg 15%
    15:00 +34°C° 0 mm 6 m/S 655 mmHg 14%
    16:00 +34°C° 0 mm 6 m/S 655 mmHg 13%
    17:00 +33°C° 0 mm 5 m/S 655 mmHg 15%
    18:00 +30°C° 0 mm 4 m/S 655 mmHg 16%
    19:00 +29°C° 0 mm 4 m/S 655 mmHg 17%
    20:00 +28°C° 0 mm 3 m/S 655 mmHg 18%
    21:00 +27°C° 0 mm 3 m/S 655 mmHg 19%
    22:00 +26°C° 0 mm 3 m/S 654 mmHg 20%
    23:00 +26°C° 0 mm 3 m/S 654 mmHg 20%

    27 Juni, Dienstag

    Zeit Temperatur Niederschläge Wind Luftdruck Luftfeuchtigkeit
    00:00 +25°C° 0 mm 3 m/S 654 mmHg 21%
    01:00 +25°C° 0 mm 3 m/S 654 mmHg 21%
    02:00 +24°C° 0 mm 3 m/S 654 mmHg 22%
    03:00 +24°C° 0 mm 3 m/S 653 mmHg 22%
    04:00 +22°C° 0 mm 3 m/S 653 mmHg 22%
    05:00 +25°C° 0 mm 4 m/S 654 mmHg 21%
    06:00 +26°C° 0 mm 4 m/S 655 mmHg 20%
    07:00 +28°C° 0 mm 4 m/S 655 mmHg 19%
    08:00 +29°C° 0 mm 5 m/S 656 mmHg 18%
    09:00 +30°C° 0 mm 5 m/S 656 mmHg 17%
    10:00 +32°C° 0 mm 6 m/S 656 mmHg 16%
    11:00 +33°C° 0 mm 6 m/S 656 mmHg 15%
    12:00 +34°C° 0 mm 6 m/S 655 mmHg 14%
    13:00 +34°C° 0 mm 6 m/S 655 mmHg 13%
    14:00 +34°C° 0 mm 5 m/S 655 mmHg 12%
    15:00 +34°C° 0 mm 5 m/S 655 mmHg 12%
    16:00 +34°C° 0 mm 5 m/S 654 mmHg 11%
    17:00 +33°C° 0 mm 5 m/S 654 mmHg 12%
    18:00 +30°C° 0 mm 4 m/S 654 mmHg 14%
    19:00 +29°C° 0 mm 4 m/S 654 mmHg 15%
    20:00 +28°C° 0 mm 4 m/S 654 mmHg 16%
    21:00 +27°C° 0 mm 4 m/S 654 mmHg 17%
    22:00 +27°C° 0 mm 4 m/S 654 mmHg 17%
    23:00 +26°C° 0 mm 4 m/S 653 mmHg 18%

    28 Juni, Mittwoch

    Zeit Temperatur Niederschläge Wind Luftdruck Luftfeuchtigkeit
    00:00 +25°C° 0 mm 4 m/S 653 mmHg 19%
    01:00 +25°C° 0 mm 4 m/S 653 mmHg 20%
    02:00 +23°C° 0 mm 4 m/S 653 mmHg 21%
    03:00 +23°C° 0 mm 4 m/S 653 mmHg 22%
    04:00 +22°C° 0 mm 4 m/S 653 mmHg 23%
    05:00 +25°C° 0 mm 4 m/S 653 mmHg 22%
    06:00 +26°C° 0 mm 4 m/S 654 mmHg 21%
    07:00 +27°C° 0 mm 4 m/S 655 mmHg 19%
    08:00 +29°C° 0 mm 5 m/S 655 mmHg 18%
    09:00 +30°C° 0 mm 5 m/S 655 mmHg 17%
    10:00 +32°C° 0 mm 5 m/S 655 mmHg 16%
    11:00 +32°C° 0 mm 5 m/S 655 mmHg 15%
    12:00 +33°C° 0 mm 5 m/S 655 mmHg 14%
    13:00 +34°C° 0 mm 5 m/S 654 mmHg 13%
    14:00 +34°C° 0 mm 5 m/S 654 mmHg 13%
    15:00 +34°C° 0 mm 5 m/S 654 mmHg 12%
    16:00 +34°C° 0 mm 5 m/S 654 mmHg 12%
    17:00 +32°C° 0 mm 5 m/S 653 mmHg 13%
    18:00 +30°C° 0 mm 4 m/S 653 mmHg 14%
    19:00 +28°C° 0 mm 3 m/S 653 mmHg 15%
    20:00 +27°C° 0 mm 3 m/S 653 mmHg 15%
    21:00 +27°C° 0 mm 3 m/S 653 mmHg 15%
    22:00 +26°C° 0 mm 3 m/S 653 mmHg 16%
    23:00 +25°C° 0 mm 3 m/S 652 mmHg 16%
    Mehr zeigen